Home   Weather   Gerolstein   Past weeks

Flag for Germany Past Weather in Gerolstein, Rhineland-Palatinate, Germany — Yesterday and Last 2 Weeks

Now
20 °F

Fog.


Feels Like: 15 °F
Forecast: 10 / 20 °F
Wind: 3 mph from Northeast

Location: Nuerburg-Barweiler

Current Time: Jan 17, 2017 at 10:51:49 pm

Latest Report: Jan 17, 2017 at 9:00 pm


Visibility: 2 mi

Pressure: 30.67 "Hg

Humidity: 99%

Dew Point: 20 °F

Location of GerolsteinLocation

Past Weather in Gerolstein — Graph

°F

Gerolstein Temperature Yesterday

Maximum temperature yesterday: 28 °F (at 11:00 am)
Minimum temperature yesterday: 20 °F (at 11:00 pm)
Average temperature yesterday: 25 °F

High & Low Weather Summary for the Past Weeks

 TemperatureHumidityPressure
High40 °F (Jan 11, 5:00 pm)100% (Jan 4, 9:00 am)30.81 "Hg (Jan 4, 9:00 am)
Low12 °F (Jan 6, 9:00 am)66% (Jan 6, 2:00 pm)29.00 "Hg (Jan 13, 2:00 am)
Average29 °F92%30.19 "Hg
* Reported Jan 2 9:00 pm — Jan 17 9:00 pm, Gerolstein, Weather by CustomWeather, © 2017

Note: Actual official high and low records may vary slightly from our data, if they occured in-between our weather recording intervals... More about our weather records

Advertising

Gerolstein Weather History for the Previous 24 Hours

Scroll right to see more
 ConditionsComfort  
Time TempWeatherWind HumidityBarometerVisibility
9:00 pm
Tue, Jan 17
20 °FFog.3 mph99%30.67 "Hg2 mi
8:00 pm21 °FFog.5 mph98%30.67 "Hg2 mi
6:00 pm22 °FPassing clouds.5 mph97%30.65 "Hg3 mi
5:00 pm22 °FOvercast.5 mph94%30.63 "Hg6 mi
3:00 pm22 °FScattered clouds.6 mph88%30.63 "Hg10 mi
2:00 pm23 °FLow clouds.6 mph87%30.63 "Hg9 mi
1:00 pmN/APassing clouds.6 mphN/AN/A28 mi
12:00 pm22 °FScattered clouds.3 mph89%30.64 "Hg14 mi
11:00 am22 °FSunny.1 mph94%30.63 "Hg9 mi
9:00 am17 °FOvercast.2 mph94%30.63 "Hg7 mi
8:00 am18 °FOvercast.1 mph96%30.61 "Hg7 mi
6:00 am18 °FFog.5 mph95%30.58 "Hg4 mi
5:00 am20 °FFog.3 mph97%30.56 "Hg3 mi
3:00 am20 °FLow clouds.3 mph99%30.54 "Hg1 mi
2:00 am20 °FLow clouds.3 mph98%30.53 "Hg1 mi
12:00 am21 °FLow clouds.3 mph99%30.50 "Hg0 mi
11:00 pm
Mon, Jan 16
20 °FFog.2 mph99%30.50 "Hg2 mi
10:00 pmN/APassing clouds.7 mphN/AN/A17 mi
Weather by CustomWeather, © 2017

See weather overviewHow to use our weather pages